Regional Weather Roundup
Issued by NWS Boston, MA

Home | Current Version | Previous Version | Text Only | Print | Product List | Glossary On
Versions: 1 2 3 4 5 6 7 8 9 10 11 12 13 14 15 16 17 18 19 20 21 22 23 24 25 26 27 28 29 30 31 32 33 34 35 36 37 38 39 40 41 42 43 44 45 46 47 48 49 50
000
ASUS41 KBOX 012310
RWRBOX

REGIONAL WEATHER ROUNDUP
NATIONAL WEATHER SERVICE TAUNTON MA
600 PM EST SUN MAR 01 2015

NOTE:  "FAIR" INDICATES FEW OR NO CLOUDS BELOW 12,000 FEET WITH NO
SIGNIFICANT WEATHER AND/OR OBSTRUCTIONS TO VISIBILITY.  THE FOLLOWING
OBSERVATION LOCATIONS DO NOT REPORT PRESENT WEATHER...PROVINCETOWN...
SMITHFIELD...BLOCK ISLAND...KEENE...AND OXFORD.

MAZALL-020000-
EASTERN MASSACHUSETTS

CITY           SKY/WX    TMP DP  RH WIND       PRES   REMARKS
BOSTON         LGT SNOW  27  23  85 S9        30.36F FOG     WCI  18
BEVERLY        LGT SNOW  26  21  81 S6        30.34F WCI  19
LAWRENCE       LGT SNOW  26  22  84 S3        30.35F FOG
BEDFORD        LGT SNOW  25  23  92 S3        30.32F FOG
BLUE HILL        N/A     24  22  91 S10       30.30F WCI  14
NORWOOD        LGT SNOW  26  24  92 S5        30.35F FOG     WCI  20
MARSHFIELD     MIX PCPN  28  27  93 S3        30.38F VSB 1
PLYMOUTH       LGT SNOW  26  25  96 S5        30.36F VSB 3/4 WCI  20
TAUNTON        LGT SNOW  28  25  88 SE3       30.35F VSB 3/4
NEW BEDFORD    LGT SNOW  28  27  96 S6        30.36F VSB 1   WCI  22
$$

MAZALL-020000-
CAPE COD AND THE ISLANDS

CITY           SKY/WX    TMP DP  RH WIND       PRES   REMARKS
FALMOUTH       LGT SNOW  27  27 100 S8        30.37F WCI  18
HYANNIS        LGT SNOW  28  26  92 S7        30.37F FOG     WCI  21
CHATHAM        LGT SNOW  28  26  92 S6        30.39F FOG     WCI  22
PROVINCETOWN   CLOUDY    27  25  93 S9        30.38F WCI  17
NANTUCKET      LGT SNOW  31  25  78 S8        30.39F WCI  23
MARTHAS VNYRD  LGT SNOW  29  25  85 S8        30.37F VSB 1   WCI  21
$$

MAZALL-020000-
CENTRAL AND WESTERN MASSACHUSETTS

CITY           SKY/WX    TMP DP  RH WIND       PRES   REMARKS
WORCESTER      LGT SNOW  23  20  88 S7        30.26F FOG     WCI  15
FITCHBURG      LGT SNOW  26  21  81 SE5       30.31F WCI  20
ORANGE         LGT SNOW  23  20  88 S3        30.29F FOG
SPRINGFIELD    LGT SNOW  24  22  91 S5        30.30F FOG     WCI  18
WESTFIELD      LGT SNOW  24  21  88 S3        30.31F FOG
NORTH ADAMS    LGT SNOW  23  18  81 E3        30.26F
PITTSFIELD     LGT SNOW  20  16  84 VRB3      30.20F FOG
$$

RIZALL-020000-
RHODE ISLAND

CITY           SKY/WX    TMP DP  RH WIND       PRES   REMARKS
PROVIDENCE     SNOW      27  25  92 S5        30.36F VSB 1/2 WCI  22
NEWPORT        LGT SNOW  28  27  96 S8        30.36F VSB 1   WCI  20
BLOCK ISLAND   CLOUDY    30  27  86 SW6       30.35F VSB 3/4 WCI  24
SMITHFIELD       N/A     27  21  80 S3        30.31F VSB 3/4
WESTERLY       SNOW      29  28  96 S3        30.37F VSB 1/2
$$

CTZALL-020000-
CONNECTICUT

CITY           SKY/WX    TMP DP  RH WIND       PRES   REMARKS
BRADLEY INTL   LGT SNOW  27  22  81 S7        30.32F VSB 1   WCI  19
HARTFORD       LGT SNOW  26  23  88 S6        30.35F VSB 3/4 WCI  19
BRIDGEPORT     LGT SNOW  26  25  96 CALM      30.35F VSB 1
DANBURY        LGT SNOW  24  19  81 SW3       30.33F VSB 3/4
GROTON         SNOW      27  27 100 SW6       30.36F VSB 1/2 WCI  20
NEW HAVEN      LGT SNOW  27  24  89 CALM      30.35F VSB 3/4
CHESTER        LGT SNOW  27  27 100 S5        30.33F VSB 1   WCI  21
MERIDEN        SNOW      25  22  88 S3        30.35F VSB 1/2
WILLIMANTIC    LGT SNOW  26  23  88 S5        30.35F VSB 3/4 WCI  20
OXFORD         SNOW      23  16  74 S5        30.31F VSB 1/2 WCI  17
$$

MEZ002-015-021-024-NHZ003-005-008-011-012-014-VTZ005-008-020000-
NORTHERN NEW ENGLAND

CITY           SKY/WX    TMP DP  RH WIND       PRES   REMARKS
PORTLAND ME    CLOUDY    29  14  53 S9        30.32F WCI  20
BANGOR ME      CLOUDY    28  16  60 S9        30.30F WCI  19
CONCORD NH     LGT SNOW  24  21  88 S7        30.30F FOG     WCI  16
MANCHESTER NH  LGT SNOW  25  22  88 S8        30.30F FOG     WCI  16
NASHUA NH      LGT SNOW  27  21  80 CALM      30.33F FOG
PORTSMOUTH NH  LGT SNOW  26  20  79 S7        30.31F WCI  18
JAFFREY NH     LGT SNOW  21  17  84 S8        30.25F FOG     WCI  11
KEENE NH       MOCLDY    25  19  80 S5        30.28F WCI  19
BURLINGTON VT  CLOUDY    25  15  66 S16G32    30.20F WCI  12
MT. WASHINGTON SNOW       9   9 100 W47         N/A  VSB 0   WCI -18
$$

NYZ052-076-020000-
EASTERN NEW YORK

CITY           SKY/WX    TMP DP  RH WIND       PRES   REMARKS
ALBANY         LGT SNOW  24  18  77 S8        30.28F VSB 1   WCI  15
NEW YORK CITY  LGT SNOW  26  23  88 SW3       30.34F VSB 3/4
$$

ANZALL-020000-
MARINE OBSERVATIONS

STATION/POSITION TIME  TEMP    WIND        PRES    VSBY  WAVE
                       AIR SEA DIR/SP/G                  HT/PER
                 (UTC) (F)     (DEG/KT/KT) (MB)    (MI)  (FT/S)
BOSTON BUOY      2250   27 37  190/ 12/ 16 1028.6F         2/ 3
BUZZARDS BAY     2200          190/  8/  9 1030.3F
NANTUCKET SOUND  2250   29 31  170/  8/ 10 1029.6F         0
MASS BAY-STELLWA 2204   28 35  190/ 14/ 17   N/A    1 1/2  3/ 4
ISLE OF SHOALS   2200   28     220/ 20/ 22 1027.7F
S OF BLOCK IS    2208      37                N/A           2/ 9
$$

......................KEY.........................
  SKY/WX - SKY CONDITION/PRESENT WEATHER
  TMP    - TEMPERATURE IN FAHRENHEIT
  DWPT   - DEWPOINT IN FAHRENHEIT
  RH     - RELATIVE HUMIDITY IN PERCENT
  WIND   - DIRECTION AND SPEED IN MPH
  PRES   - MEAN SEA LEVEL PRESSURE IN INCHES OF HG
  WCI    - WIND CHILL INDEX
  VSB    - VISIBILITY IN MILES
  HX     - HEAT INDEX
  TC     - TEMPERATURE IN CELSIUS
  VRB    - VARIABLE WIND DIRECTION
  N/A    - NOT AVAILABLE


USA.gov is the U.S. government's official web portal to all federal, state and local government web resources and services.